map of MOL home
MOL - Airport
Location
City:  Molde, Møre og Romsdal, Norway
Name:Årø
ICAO:ENML
IATA:MOL

Details
Type:Airport (Aerodrome, Airfield)
Use:Public/Civil
Latitude:62°44'41"N (62.744722)
Longitude:7°15'45"E (7.262500)
Datum:other
Elevation:10 ft (3 m)
Variation:1.91°E (WMM2015 magnetic declination)
0.19° annual change
Runways:1
Longest:5253 × 148 ft (1601 × 45 m), paved

Time
Time Zone:UTC+1 (DST+2)
Local Time:

Weather
METAR:ENML 170320Z AUTO 04007KT 9999NDV OVC074/// M01/M07 Q1014

Related Locations
Nearby:
Farthest:NZTB: 11433 mi / 18400 km
Terra Nova Bay [Mario Zucchelli Station], AQ

Find:

   beyond  
but within

Other Information
Maps:
NOTAMs:
Links:
Sources:

  
  • flag of Norway
  

Sectional Chart

Flight Planning
at skyvector.com

Satellite Image

Google Maps Satellite view

 

Copyright © 2004-2018 Karl L. Swartz. All rights reserved.
The Great Circle Mapper name and logo are trademarks of the Great Circle Mapper.
All other trademarks mentioned herein belong to their respective owners.
Please see credits for attibutions and further copyright information.

  Follow gcmap on Facebook Follow gcmap on Twitter Follow gcmap on Google+ GCmap on LinkedIn

hCard Microformat

Geo Microformat